STARLINK-31848, 59784

Orbit data source: Space-Track

STARLINK-31848, 59784 is a payload satellite owned by SpaceX/Seattle (US) in LEO that was launched on Sat, 18 May 2024 UTC via an FALCON 9 launch vehicle from the Air Force Eastern Test Range (AFETR). Payload-class satellites include a variety of spacecraft equipped with specific instruments for various scientific and technological missions. These include communications satellites like Starlink; space stations such as the ISS; scientific satellites like the Hubble; Earth observation satellites from companies like Planet Labs, Umbra, and HawkEye 360; GPS; miniature CubeSats for education and research; and military/defense satellites.

Loading next visibility...
Identifier
59784, 2024-093C
Orbit
LEO
Last TLE update
17 hours ago
Origin
Manufacturer
SpaceX/Seattle
Mission
Operational spacecraft
Bus & Motor
STARLINK V2M, Unknown motor
Mass
730 kg wet, ~700 kg dry
Launch date (UTC)
2024-05-18 (1 year ago)
Launch vehicle
FALCON 9
Launch site
Air Force Eastern Test Range (AFETR)
Object type
Payload
Rocket body
Debris
Shape & HBR
Unknown
Radar Cross Section
Large (>1 m²)

Expand to show TLE details & history

TLE from 17 hours ago
0 STARLINK-31848
1 59784U 24093C   25181.74239954 -.00000922  00000-0 -23993-4 0  9996
2 59784  43.0057 188.2806 0002202 281.5123  78.5481 15.27559336 64206
Epoch: 2025-06-30T17:49Z
TLE epoch observation values (Epoch: 2025-06-30T17:49:03.32Z)
Latitude
-0.00004°
Longitude
1.96889°
Altitude
482.587 km
Speed
7.626 km/s
True Right ascension
12h 33m 07s
True Declination
0° 00' 00"
Sunlit
Object was in daylight at epoch
Visualization orbit readout
Latitude
-42.33349°
Longitude
-105.74099°
Altitude
494.767 km
Speed
7.619 km/s
Apparent Right ascension
07h 46m 25s
Apparent Declination
-47° 21' 07"
Sunlit
Object is in daylight
Visualization observer readout
Local Sidereal Time
22:17:03
Azimuth
117.989° SE
Elevation
-62.046°
Doppler factor
1
Orbital elements
Apogee altitude
486.566 km
Perigee altitude
483.544 km
Semi-major axis
6,863.192 km
Eccentricity
0.00022
Inclination
43.0057°
RAAN
188.2806°
Arg. of periapsis
281.5123°
True anomaly
Unknown
Mean anomaly
78.5481°
Eccentric anomaly
Unknown
Mean motion
3.81728 °/min
Orbital period
94.31 mins
BSTAR
-0.000023993
Loading maneuver chart data...
Loading SW <> Apogee altitude chart data...
Loading historical data...
Loading historical data...
Loading historical data...
Loading historical data...
Loading historical data...
Loading historical data...
Loading historical data...

STARLINK-31848 Visibility forecast

Observer location: undefined°, undefined°

Span
Click to sort rows by Start time (UTC) header in descending order
Start Az.
Max El. time (UTC)
Max El. Az.
Max El.
End time (UTC)
End Az.
5 mins2025-07-02 02:57:34.604Z200.295° SSW2025-07-02 03:00:34.604Z142.11° SSE22.757°2025-07-02 03:02:34.604Z100.48° ESE
6 mins2025-07-02 04:36:34.604Z254.199° W2025-07-02 04:39:34.604Z60.809° ENE42.46°2025-07-02 04:42:34.604Z71.403° E
5 mins2025-07-02 06:16:34.604Z297.145° NW2025-07-02 06:18:34.604Z20.323° NNE37.259°2025-07-02 06:21:34.604Z76.326° E
5 mins2025-07-02 07:55:34.604Z289.602° WNW2025-07-02 07:57:34.604Z87.725° E44.64°2025-07-02 08:00:34.604Z107.419° ESE
4 mins2025-07-02 09:34:34.604Z248.835° W2025-07-02 09:36:34.604Z200.896° SSW21.604°2025-07-02 09:38:34.604Z164.551° S
|